Location: Cornelius Cemetery
(36.9614°N, 87.6253°W)
Time: 06:46:33
(UTC+00:00)

Daily predictions for brighter satellites

Satellite Brightness Start Highest point End
(mag) Time Altitude Azimuth Time Altitude Azimuth Time Altitude Azimuth
Tiangong 2 2.3 12:04:56 12° WNW 12:07:23 28° N 12:10:10 10° ENE
SPOT 3 Rocket 3.9 12:05:00 10° NNE 12:10:09 73° ESE 12:15:16 10° S
SJ-12 3.9 12:07:01 10° N 12:11:11 83° WNW 12:15:21 10° SSW
PAYLOAD A 4.2 12:08:46 10° N 12:14:03 65° WNW 12:19:24 10° SSW
Cosmos 1346 Rocket 4.0 12:11:50 10° NW 12:14:52 22° W 12:17:55 10° SW
CZ-4 R/B 1.3 12:11:27 10° N 12:15:23 61° WNW 12:19:13 10° SSW
SL-16 R/B 3.8 12:12:55 10° W 12:15:49 14° NW 12:18:45 10° NNW
Lacrosse 4 Rocket 4.2 12:18:22 10° NE 12:19:12 10° NE 12:20:02 10° ENE
Cosmos 2056 Rocket 3.8 12:14:23 10° NNW 12:19:20 48° WSW 12:24:12 10° S
Cosmos 2154 Rocket 4.1 22:51:12 10° N 22:57:27 86° W 23:03:41 10° S
CZ-4 R/B 1.5 22:55:54 10° SSE 23:00:01 58° ENE 23:04:07 10° N
Okean 3 3.7 22:56:08 10° S 23:00:26 79° W 23:04:43 10° N
Cosmos 1844 Rocket 2.8 22:57:37 10° S 23:03:06 62° ESE 23:08:38 10° NNE
COSMO-SKYMED 1 4.0 23:00:08 10° NE 23:03:18 20° E 23:06:28 10° SE
Cosmos 1544 Rocket 4.4 23:00:03 10° NNE 23:03:58 29° ENE 23:07:52 10° SE
Cosmos 158 Rocket 4.2 22:58:53 10° N 23:04:07 53° ENE 23:09:15 10° SE
Cosmos 1975 Rocket 3.0 23:00:26 10° S 23:04:44 77° E 23:09:02 10° N
CZ-2C R/B 2.5 23:01:55 10° SSE 23:06:42 56° ENE 23:11:40 10° N
Cosmos 1048 Rocket 4.1 23:02:16 10° NNW 23:07:36 86° ENE 23:12:58 10° SSE
Cosmos 1238 Rocket 3.2 23:07:44 10° SSE 23:10:15 25° E 23:12:45 10° NNE
Cosmos 1844 3.8 23:07:57 10° S 23:13:21 55° ESE 23:18:46 10° NNE
CZ-3A R/B 3.7 23:09:25 10° W 23:13:33 47° NNW 23:31:58 10° NE
BREEZE-M DEB (TANK) 3.7 23:14:53 10° WNW 23:16:35 17° NNW 23:18:10 10° NNE
Cosmos 1975 4.2 23:14:45 10° NNE 23:17:42 19° ENE 23:20:38 10° ESE
CRYOSAT 2 4.3 23:13:06 10° N 23:18:02 77° E 23:22:54 10° S
AQUARIUS 4.1 23:14:14 10° SSE 23:18:42 73° ENE 23:23:12 10° N
MOS 1 4.3 23:13:40 10° SSE 23:19:20 81° ENE 23:25:00 10° NNW
Cosmos 1536 Rocket 4.3 23:17:19 10° SSE 23:21:18 34° E 23:25:21 10° NNE
CORIOLIS 4.1 23:16:25 10° SSE 23:21:47 69° ENE 23:27:10 10° N
SPOT 3 Rocket 3.6 23:20:04 10° SSE 23:25:16 88° ENE 23:30:29 10° NNW
SMAP 3.1 23:22:30 10° SSE 23:27:09 90° E 23:31:49 10° NNW
YAOGAN 1 2.5 23:24:17 10° SSE 23:28:36 87° ENE 23:32:57 10° NNW
Cosmos 2278 Rocket 2.5 23:25:46 10° S 23:31:07 46° ESE 23:36:29 10° NE
COSMOS 2406 3.4 23:29:24 10° NNW 23:35:08 78° WSW 23:40:51 10° SSE
SL-8 Rocket 4.0 23:29:50 10° N 23:36:01 87° E 23:42:11 10° S
ASTRO F (AKARI) 4.2 23:34:29 10° N 23:37:38 83° WNW 23:40:46 10° SSW
EP 2 4.2 23:37:41 10° SSW 23:40:17 59° ESE 23:41:24 28° NE
IDEFIX/ARIANE 42P 2.9 23:36:25 10° S 23:41:35 69° WSW 23:46:47 10° NNW
USA 32 4.2 23:36:49 10° S 23:42:02 76° W 23:47:16 10° N
Cosmos 1484 Rocket 2.7 23:41:59 10° SSE 23:45:40 54° ENE 23:49:20 10° N
Cosmos 2366 rocket 4.0 23:39:46 10° N 23:46:09 77° E 23:52:27 10° S
Cosmos 2218 Rocket 4.0 23:41:39 10° N 23:47:59 90° N 23:54:11 10° S
OTV 4 1.0 23:45:05 10° W 23:48:02 54° SSW 23:49:39 23° SE
CZ-3B DEB 2.3 23:44:37 10° WSW 23:48:03 62° NW 23:55:18 14° NE
Cosmos 921 Rocket 4.5 23:46:17 10° SE 23:48:30 18° ESE 23:48:30 18° ESE
SKYMED 2 3.5 23:47:14 10° NNE 23:51:35 72° ESE 23:55:53 10° S
Cosmos 1455 Rocket 3.0 23:49:21 10° N 23:53:46 86° E 23:58:12 10° S
